Regional Weather Roundup
Issued by NWS

Home | Current Version | Previous Version | Graphics & Text | Print | Product List | Glossary On
Versions: 1 2 3 4 5 6 7 8 9 10 11 12 13 14 15 16 17 18 19 20 21 22 23 24 25 26 27 28 29 30 31 32 33 34 35 36 37 38 39 40 41 42 43 44 45 46 47 48 49 50
000
ASUS43 KMPX 212001
RWRMN
WEATHER ROUNDUP FOR MINNESOTA
NATIONAL WEATHER SERVICE TWIN CITIES/CHANHASSEN MN
200 PM CST SUN DEC 21 2014


NOTE: "FAIR" INDICATES FEW OR NO CLOUDS BELOW 12,000 FEET WITH NO
SIGNIFICANT WEATHER AND/OR OBSTRUCTIONS TO VISIBILITY. N/A MEANS
CURRENT SKY AND/OR WEATHER CONDITIONS ARE NOT AVAILABLE.

MNZ060>063-068>070-212100-
   Twin Cities Metro

CITY           SKY/WX    TMP DP  RH WIND       PRES   REMARKS
TWIN CITIES    LGT RAIN  35  34  96 SE9       29.76F FOG     WCI  28
ST PAUL        LGT RAIN  35  34  96 SE12      29.78F FOG     WCI  27
CRYSTAL        MIX PCPN  36  34  92 S12       29.74F FOG
BLAINE         LGT SNOW  36  36 100 SE9       29.75F
LAKEVILLE      CLOUDY    34  34 100 S9        29.76F FOG     WCI  26
EDEN PRAIRIE   LGT RAIN  36  34  92 S10       29.74F FOG
SOUTH ST PAUL  LGT RAIN  36  35  96 S9        29.77F
LAKE ELMO      MIX PCPN  34  34 100 S12       29.78F WCI  25
$$
MNZ001>005-007-008-013>017-022>024-027-028-212100-
   Northwest Minnesota

CITY           SKY/WX    TMP DP  RH WIND       PRES   REMARKS
BEMIDJI        CLOUDY    31  29  94 S13       29.65F FOG     WCI  21
HALLOCK        CLOUDY    30  30 100 CALM      29.61F FOG
ROSEAU         CLOUDY    32  27  80 S12       29.64F HAZE    WCI  23
WARROAD        CLOUDY    30  27  86 S7        29.65F FOG     WCI  23
THIEF RVR FALL CLOUDY    30  28  93 S13       29.63F WCI  20
CROOKSTON      CLOUDY    30  30 100 S13       29.64F FOG     WCI  20
FOSSTON        CLOUDY    28  28 100 SE7       29.64F FOG     WCI  21
DETROIT LAKES  CLOUDY    32  32 100 S13       29.64S FOG     WCI  22
MOORHEAD       CLOUDY    34  34 100 SE13      29.63F FOG     WCI  25
PARK RAPIDS    CLOUDY    32  31  96 S10       29.65F FOG     WCI  24
MAHNOMEN       CLOUDY    31  29  93 S10       29.64S WCI  22
$$
MNZ006-009>011-018-025>026-212100-
   North Central Minnesota

CITY           SKY/WX    TMP DP  RH WIND       PRES   REMARKS
BAUDETTE       CLOUDY    31  28  89 S8        29.66F WCI  23
FLAG ISLAND    CLOUDY    30  28  93 S17       29.64F FOG     WCI  18
INTL FALLS     CLOUDY    31  28  89 VRB7      29.70F WCI  24
WASKISH        CLOUDY    32  30  93 SE3       29.67F
BIG FORK       CLOUDY    32  30  93 S8        29.70F FOG     WCI  25
LONGVILLE      CLOUDY    32  30  93 SE10      29.68F FOG     WCI  24
GRAND RAPIDS   CLOUDY    30  28  93 S10       29.70F WCI  21
CRANE LAKE     CLOUDY    30  28  93 S7        29.75F FOG     WCI  23
ORR            CLOUDY    30  28  93 S12       29.70F FOG     WCI  21
COOK           CLOUDY    30  28  93 SE7       29.73F FOG     WCI  23
WALKER         CLOUDY    31  30  96 SE7       29.67F FOG     WCI  24
$$
MNZ012-019>021-037-212100-
   Northeast Minnesota

CITY           SKY/WX    TMP DP  RH WIND       PRES   REMARKS
DULUTH         CLOUDY    31  29  92 SE13      29.75F FOG     WCI  21
ELY            LGT SNOW  30  28  93 S9        29.75F WCI  22
HIBBING        CLOUDY    32  29  88 SE8       29.73F FOG     WCI  25
EVELETH        CLOUDY    32  32 100 SE7       29.75F FOG     WCI  26
DULUTH HARBOR  MIX PCPN  34  30  86 CALM      29.81F
TWO HARBORS    CLOUDY    36  30  80 SE5       29.78F VSB 1
SILVER BAY     LGT SNOW  34  30  86 E6        29.79F VSB 1   WCI  29
GRAND MARAIS     N/A     35  32  88 SE9       29.86F WCI  28
G MARAIS ARPRT MIX PCPN  28  25  86 SE7       29.80F VSB 1/2 WCI  21
$$
MNZ029>031-032-039>041-046>048-054>057-064-212100-
   West Central Minnesota

CITY           SKY/WX    TMP DP  RH WIND       PRES   REMARKS
FERGUS FALLS   CLOUDY    32  30  93 SE15      29.66F FOG     WCI  22
WHEATON        CLOUDY    30  28  93 SE16      29.63F FOG     WCI  19
MORRIS         FOG       34  32  93 SE12      29.62F VSB 3/4 WCI  25
ALEXANDRIA     CLOUDY    33  32  96 S14       29.65F FOG     WCI  23
ELBOW LAKE     CLOUDY    32  32  99 SE15      29.62F FOG     WCI  22
WADENA         CLOUDY    30  30 100 S10       29.66F FOG     WCI  21
GLENWOOD       CLOUDY    34  34 100 S13G21    29.66F FOG     WCI  25
APPLETON       CLOUDY    36  34  93 S9        29.64F
BENSON         CLOUDY    36  34  93 S12       29.64F FOG
ORTONVILLE     CLOUDY    34  30  86 SE8       29.62F FOG     WCI  27
MADISON        PTSUNNY   37  36  93 S9        29.63F
WILLMAR        FOG       36  34  93 SE10      29.68F VSB 1/4
$$
MNZ033>034-036-042>043-049>051-058-059-212100-
   Central Minnesota

CITY           SKY/WX    TMP DP  RH WIND       PRES   REMARKS
ST CLOUD       FOG       36  34  92 S10       29.71F VSB 1
SAUK CENTRE    CLOUDY    33  32  99 SE10      29.67F FOG     WCI  24
PAYNESVILLE    FOG       32  32 100 E8        29.69F VSB 3/4 WCI  25
AITKIN         CLOUDY    36  30  80 S7        29.70F HAZE
PINE RIVER     CLOUDY    32  32 100 SE10      29.72F FOG     WCI  24
BRAINERD       CLOUDY    33  32  96 S8        29.70F FOG     WCI  26
STAPLES        FOG       30  30 100 SE7       29.67F VSB 3/4 WCI  23
LONG PRAIRIE   CLOUDY    32  32 100 SE13      29.68F FOG     WCI  22
LITTLE FALLS   FOG       32  32 100 SE8       29.70F VSB 1   WCI  25
LITCHFIELD     FOG       36  36 100 SE7       29.70F VSB 1
BUFFALO        CLOUDY    35  33  94 SE8       29.73F FOG     WCI  28
MAPLE LAKE     CLOUDY    36  35  99 SE9       29.72F FOG
$$
MNZ037-044-045-052-053-212100-
   East Central Minnesota

CITY           SKY/WX    TMP DP  RH WIND       PRES   REMARKS
PRINCETON      CLOUDY    36  34  93 SE7       29.74S FOG
MORA           CLOUDY    32  30  93 SE6       29.76F WCI  26
CAMBRIDGE      DRIZZLE   36  28  75 SE9       29.73F
RUSH CITY      CLOUDY    33  32  94 SE7       29.75F WCI  27
MOOSE LAKE     CLOUDY    32  32 100 CALM      29.74F FOG
HINCKLEY       CLOUDY    34  32  93 SE6       29.76F WCI  29
CLOQUET        CLOUDY    32  30  93 SE5       29.75F FOG     WCI  27
MCGREGOR       CLOUDY    32  32 100 S8        29.73F WCI  25
$$
MNZ071>073-080-081-089-090-097-098-212100-
   Southwest Minnesota

CITY           SKY/WX    TMP DP  RH WIND       PRES   REMARKS
MONTEVIDEO     CLOUDY    36  36 100 S12       29.65F FOG
GRANITE FALLS  CLOUDY    35  34  96 SE13      29.66F FOG     WCI  26
CANBY          CLOUDY    35  33  92 S7        29.63F WCI  29
MARSHALL       CLOUDY    36  30  80 S12       29.64F
REDWOOD FALLS  CLOUDY    35  34  96 SE8       29.68F FOG     WCI  29
OLIVIA         LGT RAIN  34  34 100 SE10      29.67F WCI  26
PIPESTONE      MIX PCPN  34  34 100 S14       29.62F VSB 1/4 WCI  24
WINDOM         FOG       37  37 100 S10G17    29.66F VSB 1/2
WORTHINGTON    CLOUDY    37 -11  12 S16G22    29.65F VSB 1
JACKSON        FOG       36  36 100 S16       29.69F VSB 3/4
TRACY          CLOUDY    36  35  95 S7        29.65S FOG
SLAYTON        CLOUDY    34  34 100 S14G21    29.64F FOG     WCI  25
$$
MNZ065>067-074>077-082>085-091>093-212100-
   South Central Minnesota

CITY           SKY/WX    TMP DP  RH WIND       PRES   REMARKS
MANKATO        CLOUDY    36  34  93 S10G16    29.73F
NEW ULM        CLOUDY    36  36 100 S13       29.70F FOG
ST JAMES       CLOUDY    37  37 100 S12       29.71F FOG
FAIRMONT       CLOUDY    36  34  93 S14       29.70F VSB 1/2
GLENCOE        DRIZZLE   36  36 100 SE9       29.71F
FARIBAULT      CLOUDY    36  36 100 S13       29.76F FOG
OWATONNA       CLOUDY    36  34  93 S14       29.76F FOG
WASECA         CLOUDY    36  36 100 S16       29.76F FOG
ALBERT LEA     FOG       36  36 100 S16G23    29.75F VSB 3/4
$$
MNZ078>079-086>088-094>096-212100-
   Southeast Minnesota

CITY           SKY/WX    TMP DP  RH WIND       PRES   REMARKS
ROCHESTER      CLOUDY    36  34  92 S18G30    29.80F FOG
RED WING       RAIN      37  36  93 S9        29.80F
STANTON        CLOUDY    37  34  90 S13G20    29.76F FOG
DODGE CENTER   CLOUDY    36  36 100 S20       29.77F FOG
WINONA         CLOUDY    37  36  93 S8G20     29.86F FOG
AUSTIN         CLOUDY    36  36 100 S16G22    29.79F FOG
PRESTON        CLOUDY    35  34  96 S17G30    29.82F FOG     WCI  25
$$
ABBREVIATIONS USED IN REMARKS
   TC - TEMPERATURES IN CELSIUS
  WCI - WIND CHILL INDEX
   HX - HEAT INDEX
  VSB - VISIBILITY
$$


USA.gov is the U.S. government's official web portal to all federal, state and local government web resources and services.